Location: Jackson Park
(37.2862°N, 79.9123°W)
Time: 09:50:18
(UTC+00:00)

SR - Pass Details

Date: 14 May 2026
Orbit: 567 x 853 km, 66.7° (Epoch: 10 June)

Event Time Altitude Azimuth Distance (km) Brightness Sun altitude
Rises 20:46:30 0° 340° (NNW) 3,379 ? 40.7°
Reaches altitude 10° 20:49:11 10° 350° (N) 2,464 ? 40.2°
Maximum altitude 20:54:22 34° 54° (NE) 1,372 ? 39.2°
Drops below altitude 10° 20:59:33 10° 118° (ESE) 2,467 ? 38.1°
Sets 21:02:13 0° 128° (SE) 3,383 ? 37.6°
